Time,TemperatureF,DewpointF,PressureIn,WindDirection,WindDirectionDegrees,WindSpeedMPH,WindSpeedGustMPH,Humidity,HourlyPrecipIn,Conditions,Clouds,dailyrainin,SoftwareType,DateUTC
2013-07-25 00:13:00,62.7,54.0,29.86,NNE,24,1.0,-999.0,73,-99.99,,,0.00,weatherlink.com 1.10,2013-07-25 04:13:00,
2013-07-25 00:28:00,62.2,53.0,29.87,NW,318,0.0,-999.0,73,-99.99,,,0.00,weatherlink.com 1.10,2013-07-25 04:28:00,
2013-07-25 00:43:00,61.7,53.0,29.87,NNE,32,0.0,-999.0,73,-99.99,,,0.00,weatherlink.com 1.10,2013-07-25 04:43:00,
2013-07-25 00:58:00,61.3,53.0,29.87,North,360,0.0,-999.0,73,-99.99,,,0.00,weatherlink.com 1.10,2013-07-25 04:58:00,
2013-07-25 01:13:00,60.8,52.0,29.87,NNE,21,0.0,-999.0,74,-99.99,,,0.00,weatherlink.com 1.10,2013-07-25 05:13:00,
2013-07-25 01:28:00,60.3,52.0,29.87,NNE,18,0.0,-999.0,74,-99.99,,,0.00,weatherlink.com 1.10,2013-07-25 05:28:00,
2013-07-25 01:43:00,60.0,52.0,29.87,NNW,343,0.0,-999.0,76,-99.99,,,0.00,weatherlink.com 1.10,2013-07-25 05:43:00,
2013-07-25 01:58:00,59.7,52.0,29.87,NNW,340,0.0,-999.0,77,-99.99,,,0.00,weatherlink.com 1.10,2013-07-25 05:58:00,
2013-07-25 02:13:00,59.6,52.0,29.88,NNE,13,0.0,-999.0,77,-99.99,,,0.00,weatherlink.com 1.10,2013-07-25 06:13:00,
2013-07-25 02:28:00,59.6,52.0,29.87,NW,319,0.0,-999.0,77,-99.99,,,0.00,weatherlink.com 1.10,2013-07-25 06:28:00,
2013-07-25 02:43:00,59.5,53.0,29.87,NNE,15,0.0,-999.0,78,-99.99,,,0.00,weatherlink.com 1.10,2013-07-25 06:43:00,
2013-07-25 02:58:00,59.5,53.0,29.88,NNE,15,0.0,-999.0,79,-99.99,,,0.00,weatherlink.com 1.10,2013-07-25 06:58:00,
2013-07-25 03:13:00,59.5,53.0,29.88,NNE,15,0.0,-999.0,80,-99.99,,,0.00,weatherlink.com 1.10,2013-07-25 07:13:00,
2013-07-25 03:28:00,59.5,54.0,29.89,NNE,15,0.0,-999.0,81,-99.99,,,0.00,weatherlink.com 1.10,2013-07-25 07:28:00,
2013-07-25 03:43:00,59.3,54.0,29.89,NNE,15,0.0,-999.0,81,-99.99,,,0.00,weatherlink.com 1.10,2013-07-25 07:43:00,
2013-07-25 03:58:00,59.1,53.0,29.89,NE,54,0.0,-999.0,81,-99.99,,,0.00,weatherlink.com 1.10,2013-07-25 07:58:00,
2013-07-25 04:13:00,58.9,53.0,29.89,NE,44,0.0,-999.0,80,-99.99,,,0.00,weatherlink.com 1.10,2013-07-25 08:13:00,
2013-07-25 04:28:00,59.0,53.0,29.90,NE,44,0.0,-999.0,80,-99.99,,,0.00,weatherlink.com 1.10,2013-07-25 08:28:00,
2013-07-25 04:43:00,59.1,52.0,29.90,NNE,31,0.0,-999.0,77,-99.99,,,0.00,weatherlink.com 1.10,2013-07-25 08:43:00,
2013-07-25 04:58:00,59.2,52.0,29.91,ENE,59,0.0,-999.0,77,-99.99,,,0.00,weatherlink.com 1.10,2013-07-25 08:58:00,
2013-07-25 05:13:00,59.1,52.0,29.92,ENE,63,0.0,-999.0,77,-99.99,,,0.00,weatherlink.com 1.10,2013-07-25 09:13:00,
2013-07-25 05:28:00,59.1,52.0,29.91,NE,51,0.0,-999.0,78,-99.99,,,0.00,weatherlink.com 1.10,2013-07-25 09:28:00,
2013-07-25 05:43:00,59.1,52.0,29.92,NNE,26,0.0,-999.0,77,-99.99,,,0.00,weatherlink.com 1.10,2013-07-25 09:43:00,
2013-07-25 05:58:00,59.1,52.0,29.92,NE,45,0.0,-999.0,76,-99.99,,,0.00,weatherlink.com 1.10,2013-07-25 09:58:00,
2013-07-25 06:13:00,59.1,52.0,29.93,NE,56,0.0,-999.0,76,-99.99,,,0.00,weatherlink.com 1.10,2013-07-25 10:13:00,
2013-07-25 06:28:00,59.2,51.0,29.93,ENE,60,0.0,-999.0,75,-99.99,,,0.00,weatherlink.com 1.10,2013-07-25 10:28:00,
2013-07-25 06:43:00,59.2,52.0,29.94,NNE,15,0.0,-999.0,77,-99.99,,,0.00,weatherlink.com 1.10,2013-07-25 10:43:00,
2013-07-25 06:58:00,59.2,52.0,29.95,NE,44,0.0,-999.0,77,-99.99,,,0.00,weatherlink.com 1.10,2013-07-25 10:58:00,
2013-07-25 07:13:00,59.3,52.0,29.94,ENE,69,0.0,-999.0,76,-99.99,,,0.00,weatherlink.com 1.10,2013-07-25 11:13:00,
2013-07-25 07:28:00,60.2,52.0,29.95,NE,51,2.0,-999.0,75,-99.99,,,0.00,weatherlink.com 1.10,2013-07-25 11:28:00,
2013-07-25 07:43:00,60.2,52.0,29.95,ENE,59,2.0,-999.0,73,-99.99,,,0.00,weatherlink.com 1.10,2013-07-25 11:43:00,
2013-07-25 07:58:00,60.7,53.0,29.96,ESE,104,1.0,-999.0,75,-99.99,,,0.00,weatherlink.com 1.10,2013-07-25 11:58:00,
2013-07-25 08:13:00,60.4,53.0,29.96,NNE,28,0.0,-999.0,76,-99.99,,,0.00,weatherlink.com 1.10,2013-07-25 12:13:00,
2013-07-25 08:28:00,60.2,52.0,29.97,NE,44,0.0,-999.0,75,-99.99,,,0.00,weatherlink.com 1.10,2013-07-25 12:28:00,
2013-07-25 08:43:00,60.5,53.0,29.98,East,83,2.0,-999.0,75,-99.99,,,0.00,weatherlink.com 1.10,2013-07-25 12:43:00,
2013-07-25 08:58:00,60.6,53.0,29.98,NE,52,2.0,-999.0,76,-99.99,,,0.00,weatherlink.com 1.10,2013-07-25 12:58:00,
2013-07-25 09:13:00,61.0,53.0,29.98,East,88,2.0,-999.0,75,-99.99,,,0.00,weatherlink.com 1.10,2013-07-25 13:13:00,
2013-07-25 09:28:00,61.6,53.0,29.98,East,95,5.0,-999.0,73,-99.99,,,0.00,weatherlink.com 1.10,2013-07-25 13:28:00,
2013-07-25 09:43:00,61.7,53.0,29.98,NNE,24,2.0,-999.0,72,-99.99,,,0.00,weatherlink.com 1.10,2013-07-25 13:43:00,
2013-07-25 09:58:00,62.1,54.0,29.99,ENE,69,1.0,-999.0,75,-99.99,,,0.00,weatherlink.com 1.10,2013-07-25 13:58:00,
2013-07-25 10:13:00,61.9,54.0,29.99,ENE,73,0.0,-999.0,74,-99.99,,,0.00,weatherlink.com 1.10,2013-07-25 14:13:00,
2013-07-25 10:28:00,62.0,54.0,30.00,NE,52,1.0,-999.0,74,-99.99,,,0.00,weatherlink.com 1.10,2013-07-25 14:28:00,
2013-07-25 10:43:00,62.0,54.0,30.00,East,90,2.0,-999.0,76,-99.99,,,0.00,weatherlink.com 1.10,2013-07-25 14:43:00,
2013-07-25 10:58:00,62.4,54.0,30.00,ESE,103,2.0,-999.0,75,-99.99,,,0.00,weatherlink.com 1.10,2013-07-25 14:58:00,
2013-07-25 11:13:00,62.8,55.0,30.00,ESE,109,0.0,-999.0,75,-99.99,,,0.00,weatherlink.com 1.10,2013-07-25 15:13:00,
2013-07-25 11:28:00,62.5,54.0,30.00,NNE,27,4.0,-999.0,74,-99.99,,,0.00,weatherlink.com 1.10,2013-07-25 15:28:00,
2013-07-25 11:43:00,62.5,55.0,30.01,NNE,19,3.0,-999.0,75,-99.99,,,0.00,weatherlink.com 1.10,2013-07-25 15:43:00,
2013-07-25 11:58:00,62.3,55.0,30.01,ENE,65,0.0,-999.0,76,-99.99,,,0.00,weatherlink.com 1.10,2013-07-25 15:58:00,
2013-07-25 12:13:00,62.4,54.0,30.01,SE,129,4.0,-999.0,75,-99.99,,,0.00,weatherlink.com 1.10,2013-07-25 16:13:00,
2013-07-25 12:28:00,62.8,55.0,30.00,NE,50,0.0,-999.0,76,-99.99,,,0.00,weatherlink.com 1.10,2013-07-25 16:28:00,
2013-07-25 12:43:00,62.5,55.0,30.01,ENE,69,3.0,-999.0,76,-99.99,,,0.00,weatherlink.com 1.10,2013-07-25 16:43:00,
2013-07-25 12:58:00,62.2,55.0,30.00,East,82,0.0,-999.0,77,-99.99,,,0.00,weatherlink.com 1.10,2013-07-25 16:58:00,
2013-07-25 13:13:00,62.0,56.0,30.00,NNE,33,0.0,-999.0,80,-99.99,,,0.00,weatherlink.com 1.10,2013-07-25 17:13:00,
2013-07-25 13:28:00,61.8,55.0,30.00,NE,40,4.0,-999.0,77,-99.99,,,0.00,weatherlink.com 1.10,2013-07-25 17:28:00,
2013-07-25 13:43:00,61.9,55.0,30.00,East,94,1.0,-999.0,78,-99.99,,,0.00,weatherlink.com 1.10,2013-07-25 17:43:00,
2013-07-25 13:58:00,62.5,55.0,30.00,NE,46,1.0,-999.0,77,-99.99,,,0.00,weatherlink.com 1.10,2013-07-25 17:58:00,
2013-07-25 14:13:00,63.3,56.0,29.99,NE,42,0.0,-999.0,76,-99.99,,,0.00,weatherlink.com 1.10,2013-07-25 18:13:00,
2013-07-25 14:28:00,63.4,56.0,29.99,NNE,29,0.0,-999.0,76,-99.99,,,0.00,weatherlink.com 1.10,2013-07-25 18:28:00,
2013-07-25 14:43:00,62.9,55.0,29.99,NNE,14,0.0,-999.0,76,-99.99,,,0.00,weatherlink.com 1.10,2013-07-25 18:43:00,
2013-07-25 14:58:00,63.2,56.0,29.99,NE,56,2.0,-999.0,76,-99.99,,,0.00,weatherlink.com 1.10,2013-07-25 18:58:00,
2013-07-25 15:13:00,64.9,56.0,29.99,East,94,0.0,-999.0,72,-99.99,,,0.00,weatherlink.com 1.10,2013-07-25 19:13:00,
2013-07-25 15:28:00,65.1,56.0,29.99,East,98,0.0,-999.0,73,-99.99,,,0.00,weatherlink.com 1.10,2013-07-25 19:28:00,
2013-07-25 15:58:00,63.9,55.0,29.98,East,88,3.0,-999.0,74,-99.99,,,0.00,weatherlink.com 1.10,2013-07-25 19:58:00,
2013-07-25 16:13:00,63.8,55.0,29.98,NNE,31,0.0,-999.0,74,-99.99,,,0.00,weatherlink.com 1.10,2013-07-25 20:13:00,
2013-07-25 16:28:00,63.7,56.0,29.98,North,5,6.0,-999.0,75,-99.99,,,0.00,weatherlink.com 1.10,2013-07-25 20:28:00,
2013-07-25 16:43:00,63.5,56.0,29.98,ENE,72,0.0,-999.0,77,-99.99,,,0.00,weatherlink.com 1.10,2013-07-25 20:43:00,
2013-07-25 16:58:00,63.5,57.0,29.98,ESE,107,1.0,-999.0,78,-99.99,,,0.00,weatherlink.com 1.10,2013-07-25 20:58:00,
2013-07-25 17:13:00,63.2,56.0,29.98,ESE,105,0.0,-999.0,78,-99.99,,,0.00,weatherlink.com 1.10,2013-07-25 21:13:00,
2013-07-25 17:28:00,62.7,56.0,29.99,ENE,65,0.0,-999.0,80,-99.99,,,0.00,weatherlink.com 1.10,2013-07-25 21:28:00,
2013-07-25 17:43:00,61.9,58.0,29.99,East,80,0.0,-999.0,86,-99.99,,,0.10,weatherlink.com 1.10,2013-07-25 21:43:00,
2013-07-25 17:58:00,60.9,58.0,29.99,East,84,0.0,-999.0,90,-99.99,,,0.18,weatherlink.com 1.10,2013-07-25 21:58:00,
2013-07-25 18:13:00,60.3,58.0,29.99,ENE,64,0.0,-999.0,92,-99.99,,,0.20,weatherlink.com 1.10,2013-07-25 22:13:00,
2013-07-25 18:28:00,60.1,58.0,29.99,ENE,64,0.0,-999.0,93,-99.99,,,0.21,weatherlink.com 1.10,2013-07-25 22:28:00,
2013-07-25 18:43:00,60.0,58.0,29.99,ENE,74,0.0,-999.0,93,-99.99,,,0.22,weatherlink.com 1.10,2013-07-25 22:43:00,
2013-07-25 18:58:00,60.0,58.0,29.99,ENE,76,0.0,-999.0,94,-99.99,,,0.23,weatherlink.com 1.10,2013-07-25 22:58:00,
2013-07-25 19:13:00,59.8,58.0,29.99,ENE,76,0.0,-999.0,93,-99.99,,,0.23,weatherlink.com 1.10,2013-07-25 23:13:00,
2013-07-25 19:28:00,59.8,58.0,29.99,NE,42,0.0,-999.0,94,-99.99,,,0.23,weatherlink.com 1.10,2013-07-25 23:28:00,
2013-07-25 19:43:00,59.9,59.0,29.99,NE,42,0.0,-999.0,95,-99.99,,,0.23,weatherlink.com 1.10,2013-07-25 23:43:00,
2013-07-25 19:59:00,60.1,59.0,29.99,NE,41,0.0,-999.0,95,-99.99,,,0.24,weatherlink.com 1.10,2013-07-25 23:59:00,
2013-07-25 20:13:00,60.0,59.0,29.99,NE,41,0.0,-999.0,95,-99.99,,,0.24,weatherlink.com 1.10,2013-07-26 00:13:00,
2013-07-25 20:28:00,60.0,59.0,29.99,NE,39,0.0,-999.0,95,-99.99,,,0.24,weatherlink.com 1.10,2013-07-26 00:28:00,
2013-07-25 20:43:00,59.9,59.0,30.00,North,5,0.0,-999.0,95,-99.99,,,0.24,weatherlink.com 1.10,2013-07-26 00:43:00,
2013-07-25 20:58:00,59.7,58.0,29.99,NNE,19,0.0,-999.0,95,-99.99,,,0.24,weatherlink.com 1.10,2013-07-26 00:58:00,
2013-07-25 21:13:00,59.5,58.0,29.99,WNW,298,0.0,-999.0,95,-99.99,,,0.24,weatherlink.com 1.10,2013-07-26 01:13:00,
2013-07-25 21:28:00,59.4,58.0,29.99,NE,49,0.0,-999.0,95,-99.99,,,0.24,weatherlink.com 1.10,2013-07-26 01:28:00,
2013-07-25 21:43:00,59.5,58.0,29.98,NNE,19,0.0,-999.0,96,-99.99,,,0.24,weatherlink.com 1.10,2013-07-26 01:43:00,
2013-07-25 21:58:00,59.6,59.0,29.98,NNE,17,0.0,-999.0,96,-99.99,,,0.24,weatherlink.com 1.10,2013-07-26 01:58:00,
2013-07-25 22:13:00,59.7,59.0,29.99,North,360,0.0,-999.0,96,-99.99,,,0.24,weatherlink.com 1.10,2013-07-26 02:13:00,
2013-07-25 22:28:00,59.8,59.0,29.98,NE,36,0.0,-999.0,96,-99.99,,,0.24,weatherlink.com 1.10,2013-07-26 02:28:00,
2013-07-25 22:43:00,59.8,59.0,29.98,NNE,32,0.0,-999.0,96,-99.99,,,0.24,weatherlink.com 1.10,2013-07-26 02:43:00,
2013-07-25 22:58:00,59.9,59.0,29.98,NNE,31,0.0,-999.0,96,-99.99,,,0.24,weatherlink.com 1.10,2013-07-26 02:58:00,
2013-07-25 23:13:00,60.0,59.0,29.97,NNE,24,0.0,-999.0,96,-99.99,,,0.24,weatherlink.com 1.10,2013-07-26 03:13:00,
2013-07-25 23:28:00,60.1,59.0,29.97,NNE,12,0.0,-999.0,96,-99.99,,,0.24,weatherlink.com 1.10,2013-07-26 03:28:00,
2013-07-25 23:43:00,60.1,59.0,29.97,NNW,327,0.0,-999.0,96,-99.99,,,0.24,weatherlink.com 1.10,2013-07-26 03:43:00,
2013-07-25 23:58:00,60.2,59.0,29.96,North,355,0.0,-999.0,96,-99.99,,,0.00,weatherlink.com 1.10,2013-07-26 03:58:00,